| time (UTC) | temp F | wind direction | speed MPH | gust MPH | rain 1hr in | rain 24hr in | rain mn in | humidity % | barometer mb |
| 20260504180054 | 68 | 167 | 1.0 | 12.0 | 0.01 | 0.11 | 0.11 | 69 | 999.7 |
| 20260504173045 | 68 | 167 | 4.0 | 10.0 | 0.00 | 0.10 | 0.10 | 67 | 1000.9 |
| 20260504070106 | 52 | 325 | 0.0 | 0.0 | 0.00 | 0.00 | 0.00 | 95 | 1004.4 |
| 20260504043034 | 57 | 325 | 0.0 | 0.0 | 0.00 | 0.00 | 0.00 | 86 | 1005.4 |
| 20260504040028 | 59 | 325 | 0.0 | 0.0 | 0.00 | 0.00 | 0.00 | 82 | 1005.4 |
| 20260504033107 | 60 | 325 | 0.0 | 0.0 | 0.00 | 0.00 | 0.00 | 79 | 1005.8 |
| 20260504030055 | 62 | 325 | 0.0 | 0.0 | 0.00 | 0.00 | 0.00 | 75 | 1005.7 |
| 20260504023029 | 63 | 325 | 0.0 | 0.0 | 0.00 | 0.00 | 0.00 | 72 | 1005.4 |
| 20260504020043 | 65 | 325 | 0.0 | 0.0 | 0.00 | 0.00 | 0.00 | 64 | 1005.3 |
| 20260504013102 | 68 | 325 | 0.0 | 0.0 | 0.00 | 0.00 | 0.00 | 56 | 1005.3 |
| 20260504010036 | 74 | 325 | 0.0 | 0.0 | 0.00 | 0.00 | 0.00 | 46 | 1005.1 |
| 20260504003030 | 77 | 325 | 0.0 | 4.0 | 0.00 | 0.00 | 0.00 | 37 | 1005.2 |
| 20260504000044 | 77 | 346 | 2.0 | 6.0 | 0.00 | 0.00 | 0.00 | 36 | 1005.2 |
| 20260503233036 | 78 | 198 | 3.0 | 9.0 | 0.00 | 0.00 | 0.00 | 33 | 1004.9 |
| 20260503230030 | 78 | 167 | 4.0 | 10.0 | 0.00 | 0.00 | 0.00 | 33 | 1005.2 |
| 20260503223041 | 79 | 196 | 2.0 | 13.0 | 0.00 | 0.00 | 0.00 | 33 | 1005.4 |
| 20260503220035 | 79 | 190 | 8.0 | 16.0 | 0.00 | 0.00 | 0.00 | 30 | 1005.5 |
| 20260503213029 | 79 | 172 | 7.0 | 15.0 | 0.00 | 0.00 | 0.00 | 31 | 1005.7 |
| 20260503210043 | 78 | 178 | 12.0 | 16.0 | 0.00 | 0.00 | 0.00 | 31 | 1006.5 |
| 20260503203037 | 77 | 156 | 6.0 | 18.0 | 0.00 | 0.00 | 0.00 | 30 | 1006.7 |
| 20260503200030 | 76 | 189 | 11.0 | 16.0 | 0.00 | 0.00 | 0.00 | 34 | 1007.0 |
| 20260503193107 | 75 | 173 | 11.0 | 22.0 | 0.00 | 0.00 | 0.00 | 34 | 1007.6 |
| 20260503190104 | 74 | 173 | 14.0 | 24.0 | 0.00 | 0.00 | 0.00 | 33 | 1008.1 |
| 20260503183034 | 72 | 272 | 7.0 | 20.0 | 0.00 | 0.00 | 0.00 | 35 | 1009.0 |